Location: Berville
(49.1893°N, 2.0748°E)
Time: 18:02:35
(UTC+00:00)

Okean 1-7 Rocket - Pass Details

Date: 08 February 2023
Orbit: 615 x 648 km, 82.5° (Epoch: 29 March)

Event Time Altitude Azimuth Distance (km) Brightness Sun altitude
Rises 17:57:14 0° 160° (SSE) 2,897 6.9 -9.8°
Reaches altitude 10° 17:59:39 10° 149° (SSE) 2,001 6.0 -10.2°
Maximum altitude 18:03:30 29° 89° (E) 1,154 4.4 -10.8°
Drops below altitude 10° 18:07:23 10° 29° (NNE) 2,034 5.8 -11.5°
Sets 18:09:52 0° 19° (NNE) 2,954 6.8 -11.9°
